Tracking 25612 objects as of 19-May-2022
HD Live streaming from Space Station
objects crossing your sky now

COSMOS 2251 DEB

Track COSMOS 2251 DEB now!
10-day predictions


NORAD ID: 35726
Int'l Code: 1993-036AQX
Perigee: 648.5 km
Apogee: 705.2 km
Inclination: 74.0 °
Period: 98.1 minutes
Semi major axis: 7047 km
RCS: 0.0103 m2 (small)
Launch date: June 16, 1993
Source: Commonwealth of Independent States (former USSR) (CIS)
Launch site: PLESETSK MISSILE AND SPACE COMPLEX (PKMTR)

Note: This is SATELLITE DEBRIS
aabbcc
Your satellite tracking list
Your tracking list is empty




NASA's NSSDC Master Catalog

Two Line Element Set (TLE):
1 35726U 93036AQX 22138.85713405  .00007854  00000-0  13793-2 0  9992
2 35726  74.0490 185.0314 0040246 254.2346 105.4383 14.67300082473866
Source of the keplerian elements: AFSPC